Regional Weather Roundup
Issued by NWS

Current Version | Previous Version | Text Only | Print | Product List | Glossary On
Versions: 1 2 3 4 5 6 7 8 9 10 11 12 13 14 15 16 17 18 19 20 21 22 23 24 25 26 27 28 29 30 31 32 33 34 35 36 37 38 39 40 41 42 43 44 45 46 47 48 49 50
000
ASUS44 KJAN 240910
RWRMS

MISSISSIPPI HOURLY WEATHER ROUNDUP
NATIONAL WEATHER SERVICE JACKSON MS
300 AM CST TUE JAN 24 2017

NOTE: "FAIR: INDICATES FEW OR NO CLOUDS BELOW 12,000 FEET WITH NO
SIGNIFICANT WEATHER AND/OR OBSTRUCTIONS TO VISIBILITY.

MSZ001>002-007>008-010>013-018>021-025>028-034>036-241000-
NORTHWEST MISSISSIPPI

CITY           SKY/WX    TMP DP  RH WIND       PRES   REMARKS
BATESVILLE     FAIR      32  32  99 CALM      29.90S
CLARKSDALE     CLEAR     37  37 100 CALM      29.90S
CLEVELAND      FAIR      40  40 100 SW5       29.91R
GREENWOOD      CLEAR     35  32  88 CALM      29.91R
GREENVILLE     CLEAR     39  37  92 S3        29.91R
OXFORD         FAIR      32  32 100 CALM      29.91R
TUNICA         SUNNY     37  36  93 CALM      29.91R FOG
WINONA         FAIR      33  33 100 CALM      29.90R
$$

MSZ003>006-009-014>017-022>024-029>033-037>039-241000-
NORTHEAST MISSISSIPPI

CITY           SKY/WX    TMP DP  RH WIND       PRES   REMARKS
COLUMBUS AFB   CLEAR     41  36  81 CALM      29.89
CORINTH        FAIR      36  34  93 CALM      29.88S FOG
GOLDN TRIANGLE CLEAR     37  34  87 CALM      29.84S
STARKVILLE     FAIR      34  34 100 CALM      29.90S FOG
TUPELO         CLEAR     37  34  89 N3        29.89R
$$

MSZ040-058-241000-
CENTRAL MISSISSIPPI

CITY           SKY/WX    TMP DP  RH WIND       PRES   REMARKS
JACKSON INTL   PTCLDY    39  37  92 CALM      29.91R
JACKSON HAWKNS CLOUDY    41  38  89 CALM      29.92R
MADISON        FAIR     N/A N/A N/A CALM      29.91R
MERIDIAN KEY   CLEAR     37  37 100 S3        29.90R
MERIDIAN NAS   CLEAR     40  35  83 NW3       29.90R
RAYMOND        FOG       37  37 100 CALM      29.92R VSB 3/4
VICKSBURG VKS    N/A     37  37 100 CALM      29.90R
$$

MSZ059>079-241000-
SOUTH MISSISSIPPI

CITY           SKY/WX    TMP DP  RH WIND       PRES   REMARKS
BROOKHAVEN     FAIR      39  39 100 CALM      29.93R FOG
HATTIESBURG    CLEAR     42  41  96 CALM      29.93R
LAUREL         FAIR      39  39 100 CALM      29.92R
MCCOMB         CLEAR     42  39  89 CALM      29.91R
NATCHEZ        CLEAR     41  37  87 CALM      29.90S
PINE BELT      CLEAR     39  36  87 CALM      29.93R
$$

MSZ080>082-241000-
COASTAL MISSISSIPPI

CITY           SKY/WX    TMP DP  RH WIND       PRES   REMARKS
BILOXI         CLEAR     50  45  84 N6        29.91R
PASCAGOULA     CLEAR     48  43  82 N5        29.91R
GULFPORT       CLEAR     48  45  89 N3        29.91R
$$

LAZ007>009-015>016-023>026-241000-
NORTHEAST LOUISIANA

CITY           SKY/WX    TMP DP  RH WIND       PRES   REMARKS
BASTROP        FAIR      38  38  98 CALM      29.91S
TALLULAH/VBURG CLEAR     41  39  93 CALM      29.92R FOG
VIDALIA        FAIR      42  41  97 CALM      29.94R
$$



USA.gov is the U.S. government's official web portal to all federal, state and local government web resources and services.